Wind_Speed
30 31 32 33 33 31 28 27 28 25 24 24 25 25 27 27 27 27 28 29 29 29 30 29 30 30 29 29 29 29 29 30 30 30 30 29 29 29 30 30 31 31 31
31 33 34 36 35 32 29 27 26 24 23 23 23 24 24 25 27 28 29 30 31 32 32 32 32 31 31 31 31 31 31 32 31 31 30 30 30 30 31 32 33 33 34
31 34 35 35 35 34 31 29 27 25 24 24 23 24 24 25 26 26 28 31 33 33 34 33 33 33 33 32 32 33 33 32 33 32 31 31 32 32 32 33 33 34 34
30 33 35 35 35 34 33 30 28 27 26 25 25 26 25 25 26 28 28 29 31 32 34 34 33 33 33 33 34 34 33 32 33 32 32 32 32 33 33 33 33 35 36
26 31 34 35 35 34 33 31 31 30 28 28 28 28 27 27 27 28 28 29 30 32 33 34 35 35 35 36 37 36 35 34 34 34 33 34 34 35 35 35 35 36 37
24 27 31 33 34 34 33 33 32 32 31 30 29 28 29 28 27 27 26 27 30 32 34 34 35 36 36 36 37 36 36 35 34 34 33 32 33 33 34 34 34 35 37
23 25 28 32 34 34 34 34 33 33 32 31 30 29 29 27 27 27 25 27 29 31 33 32 33 34 34 35 35 34 34 33 31 32 33 33 33 33 35 35 37 38 40
21 23 25 27 31 32 32 32 32 33 32 31 30 29 28 27 26 25 25 24 24 26 27 29 30 30 30 30 31 32 31 30 30 31 33 34 35 36 37 39 40 42 43
19 21 23 25 27 29 31 31 31 31 30 29 29 28 27 26 25 24 23 23 22 24 25 25 27 28 28 28 27 28 29 30 31 32 33 35 36 38 39 41 42 43 45
20 20 22 24 25 27 29 30 30 30 29 29 28 27 26 25 23 22 20 21 21 22 24 25 26 28 29 27 27 28 29 30 32 34 35 36 38 39 41 42 44 45 47
19 20 22 24 25 27 28 29 30 30 29 28 27 27 25 25 23 22 21 20 20 21 23 24 24 24 25 26 27 28 29 30 32 34 35 37 38 40 42 43 45 46 47
16 18 21 23 24 26 28 28 28 29 28 28 28 27 26 25 24 23 23 22 22 22 23 24 23 24 25 26 28 29 31 32 33 35 37 38 39 41 42 43 45 46 47
15 17 19 20 22 23 25 27 28 28 28 28 27 27 26 25 24 24 24 24 24 24 24 25 25 25 26 27 29 30 31 33 34 36 37 38 40 41 42 43 44 44 45
15 16 18 20 21 22 24 25 26 27 27 27 27 27 26 26 25 26 26 26 25 25 26 26 27 27 28 29 30 31 32 33 34 36 37 38 39 40 41 41 41 42 42
15 16 18 20 21 22 24 25 26 26 27 27 27 27 26 26 26 26 26 26 25 25 25 26 26 27 28 29 30 30 31 33 34 35 36 37 37 37 38 38 39 39 39
17 17 18 20 22 22 23 24 25 25 26 26 26 26 26 25 25 25 26 25 25 24 24 25 26 27 27 28 28 29 31 32 33 34 34 34 34 34 36 36 35 35 35
17 18 18 19 19 21 22 22 22 23 24 24 24 24 24 24 25 24 24 24 24 24 25 25 26 26 26 27 28 28 29 30 30 30 30 30 30 30 29 29 29 29 28
17 18 18 18 18 20 21 21 22 22 23 22 23 22 22 22 22 23 23 23 24 23 23 24 24 25 25 25 26 27 26 25 25 25 25 25 25 25 25 24 24 24 25
15 16 16 16 16 17 17 17 18 19 19 19 20 20 20 21 21 21 21 22 22 22 23 23 23 23 23 23 23 23 22 22 23 23 23 23 22 22 22 22 22 22 22
15 15 15 15 15 16 16 16 17 18 18 18 18 19 19 19 20 20 20 20 21 21 21 21 21 21 21 21 21 20 20 20 20 20 20 20 19 20 20 20 20 20 19
13 14 15 14 14 14 15 16 17 17 17 17 17 17 18 18 18 19 19 19 19 19 19 20 19 19 19 19 18 18 18 18 18 18 17 17 17 17 18 18 18 18 17
11 12 12 12 12 12 13 14 14 14 15 15 16 16 17 17 17 18 18 18 18 18 18 17 16 16 16 16 15 15 15 15 15 15 15 15 16 16 17 17 17 16 16
10 10 11 12 12 12 13 12 12 13 13 14 14 14 14 15 16 16 16 16 16 16 15 14 14 14 14 13 13 13 14 13 13 13 13 14 15 15 16 15 15 15 15
9 9 10 10 11 11 12 12 12 12 12 13 13 13 13 13 13 13 14 14 13 13 13 12 12 12 12 12 12 12 12 12 12 12 13 13 13 14 14 14 14 14 13
7 8 9 9 10 10 10 10 10 11 11 11 11 12 12 12 12 12 12 12 12 11 11 11 11 10 11 11 11 11 11 11 12 12 12 12 13 13 13 13 13 13 12
4 5 5 6 6 7 8 8 9 9 10 10 10 10 10 10 10 10 11 11 11 11 10 10 9 9 10 10 9 10 10 10 10 11 11 12 12 13 13 13 12 12 11
Wind_Direction
223 224 224 226 227 229 232 231 230 233 236 239 240 242 239 235 237 240 240 242 243 244 243 242 244 246 246 248 251 252 254 256 257 260 261 264 267 269 271 272 275 274 273
224 223 223 224 225 226 230 235 237 239 240 243 248 247 247 241 241 243 244 243 242 243 243 243 245 247 248 250 253 255 256 258 260 261 262 263 267 270 272 273 274 274 273
225 224 224 224 226 228 230 233 237 242 245 246 249 252 252 248 249 249 248 247 246 245 245 245 247 249 250 252 254 257 258 260 261 262 263 264 267 270 272 273 274 274 274
226 225 225 224 227 230 230 233 239 243 247 251 254 256 257 256 257 252 252 252 249 246 245 246 246 248 250 252 255 257 260 261 261 262 265 268 269 270 273 273 274 274 274
227 225 227 226 228 231 233 233 239 244 248 251 253 256 261 264 263 258 256 252 247 246 247 246 246 249 252 255 256 258 259 262 262 264 266 268 269 272 273 271 273 274 274
229 228 228 228 230 232 234 236 240 245 248 251 253 257 261 265 268 265 263 257 252 249 249 247 248 250 253 255 257 260 260 261 262 263 264 266 269 272 273 274 273 273 273
229 229 228 228 230 232 235 239 243 246 249 252 255 258 260 266 270 269 265 263 256 252 250 247 249 251 253 255 258 260 259 259 261 262 264 267 270 272 273 274 274 274 274
234 232 231 230 231 233 235 238 241 244 248 251 255 258 261 264 268 265 264 264 258 253 252 249 249 252 253 257 258 256 256 259 262 264 266 268 271 271 272 274 275 275 276
237 236 235 234 233 234 237 239 242 244 247 251 255 257 262 264 267 269 264 261 258 255 254 254 256 256 258 259 258 257 258 261 263 266 268 271 272 273 275 276 277 277 278
234 233 233 234 235 236 238 239 243 245 247 250 253 256 260 262 263 264 260 260 261 257 255 257 259 258 257 257 257 259 261 263 265 268 271 272 274 275 276 277 278 279 280
236 235 234 235 237 236 237 240 244 247 250 252 254 255 257 260 260 261 262 260 260 257 255 255 257 258 259 259 260 262 264 266 268 270 272 274 276 278 279 281 282 282 283
240 237 236 237 238 238 239 241 244 246 248 250 252 254 256 256 255 256 255 255 257 257 259 258 259 260 261 261 263 265 266 269 271 274 276 278 279 280 281 282 283 283 283
245 241 240 239 239 240 239 239 241 244 246 248 250 251 251 252 253 256 255 255 255 256 258 259 260 262 263 265 266 268 271 273 275 277 279 280 281 282 283 284 284 285 285
251 248 246 243 243 242 241 240 241 243 244 246 248 249 251 253 254 255 256 256 256 257 258 259 261 264 266 268 270 272 274 276 278 280 281 282 283 284 285 285 286 286 287
253 254 251 248 246 245 246 247 247 247 247 249 249 250 251 253 256 257 258 259 259 259 259 260 261 265 267 269 272 274 277 279 281 282 283 284 285 286 287 287 288 289 290
258 256 256 252 249 249 248 248 249 250 250 251 251 251 252 254 256 257 258 259 260 260 260 262 265 268 271 273 275 278 280 282 283 285 285 286 287 288 289 290 291 292 293
262 259 258 256 250 249 250 250 250 252 253 253 252 252 253 254 255 258 258 258 260 262 264 266 268 270 273 276 278 281 283 285 286 287 288 290 291 293 294 295 296 298 300
264 261 261 259 256 255 253 255 256 257 254 252 252 253 254 255 257 259 259 260 262 264 266 267 269 273 276 278 281 284 286 287 289 290 292 293 296 297 300 302 304 306 307
265 260 257 259 259 260 259 258 258 257 250 247 248 250 251 254 257 258 261 262 264 265 266 268 271 273 277 280 283 285 286 288 290 292 294 297 299 301 305 307 309 310 312
263 262 262 260 259 260 258 256 255 254 249 246 248 250 252 255 257 258 259 260 262 264 266 267 270 274 278 281 283 285 286 289 292 295 298 300 303 305 307 310 311 313 315
263 261 260 258 258 258 254 253 255 253 251 251 252 253 254 255 256 258 259 260 262 264 265 267 270 274 278 281 283 285 287 290 294 298 301 304 306 308 311 312 312 315 316
263 262 260 260 262 260 257 254 253 253 255 256 256 256 256 256 256 258 260 260 262 263 264 267 270 274 278 281 283 285 288 292 296 300 303 306 309 311 312 313 314 315 317
268 265 264 265 266 265 263 261 259 258 257 256 256 256 256 256 257 258 259 259 260 260 262 265 270 275 279 282 285 286 288 293 298 302 305 309 311 314 315 316 316 316 318
273 271 268 269 270 268 265 261 259 257 256 255 255 256 257 260 263 262 259 257 257 257 259 263 268 274 279 282 285 286 288 293 299 304 308 311 314 316 318 319 318 318 319
283 279 274 271 270 267 262 257 255 256 256 256 256 256 258 261 262 259 255 255 254 254 256 261 267 273 278 282 284 286 290 295 302 306 309 312 315 317 318 319 321 322 324
300 288 277 272 269 269 269 266 262 258 256 256 254 254 255 256 255 253 252 252 251 253 257 261 264 271 278 281 285 289 293 299 305 308 311 314 317 319 321 322 323 325 327
Height
5802 5805 5808 5811 5814 5816 5818 5819 5821 5823 5825 5827 5828 5830 5832 5834 5837 5839 5841 5842 5844 5845 5847 5848 5850 5851 5853 5854 5855 5856 5856 5857 5857 5857 5857 5857 5856 5856 5855 5854 5853 5852 5851
5796 5799 5802 5805 5807 5810 5813 5815 5816 5818 5821 5823 5824 5826 5827 5829 5832 5833 5834 5836 5838 5839 5841 5842 5844 5845 5846 5848 5849 5849 5850 5850 5851 5851 5851 5851 5851 5850 5849 5847 5846 5845 5844
5789 5792 5795 5798 5801 5804 5807 5810 5812 5814 5816 5818 5820 5821 5822 5823 5824 5826 5828 5829 5830 5832 5834 5835 5837 5838 5840 5841 5842 5843 5843 5844 5844 5844 5845 5844 5844 5843 5842 5840 5839 5837 5837
5782 5785 5789 5792 5795 5799 5801 5804 5808 5810 5812 5813 5815 5816 5815 5816 5817 5819 5820 5822 5823 5825 5826 5828 5829 5831 5832 5834 5835 5836 5836 5836 5837 5837 5837 5837 5836 5835 5835 5834 5831 5830 5829
5777 5779 5782 5786 5790 5793 5795 5799 5802 5804 5807 5808 5810 5810 5810 5810 5811 5813 5813 5814 5815 5817 5819 5820 5822 5823 5825 5826 5827 5828 5828 5829 5829 5829 5829 5829 5828 5827 5826 5826 5824 5822 5821
5771 5774 5777 5781 5784 5787 5790 5793 5796 5799 5801 5803 5804 5805 5805 5804 5805 5805 5806 5807 5808 5810 5811 5812 5814 5816 5817 5818 5819 5820 5820 5820 5821 5821 5821 5820 5820 5819 5818 5816 5815 5814 5812
5767 5770 5773 5776 5779 5782 5785 5788 5790 5793 5795 5797 5798 5799 5799 5799 5799 5799 5800 5801 5801 5802 5803 5805 5807 5808 5809 5810 5811 5812 5812 5813 5813 5813 5812 5812 5811 5811 5809 5808 5806 5804 5803
5763 5765 5768 5770 5773 5776 5779 5782 5785 5787 5789 5791 5792 5793 5794 5794 5793 5793 5794 5794 5794 5795 5796 5798 5799 5801 5801 5802 5803 5804 5804 5805 5805 5805 5804 5804 5803 5802 5800 5798 5796 5794 5792
5759 5761 5763 5766 5768 5771 5774 5777 5779 5781 5783 5785 5786 5787 5788 5788 5787 5788 5788 5788 5789 5789 5790 5792 5793 5793 5794 5795 5796 5796 5797 5797 5797 5796 5796 5795 5794 5792 5790 5788 5786 5784 5780
5755 5756 5759 5761 5763 5766 5768 5771 5773 5775 5777 5778 5780 5781 5782 5782 5782 5782 5782 5782 5783 5784 5785 5786 5786 5787 5787 5788 5789 5789 5789 5789 5789 5788 5787 5786 5784 5782 5780 5777 5775 5772 5769
5750 5752 5754 5756 5758 5760 5762 5765 5767 5768 5770 5772 5773 5774 5775 5776 5776 5777 5777 5777 5778 5778 5779 5780 5780 5780 5780 5781 5781 5781 5781 5781 5780 5779 5777 5776 5774 5772 5769 5767 5763 5760 5757
5745 5747 5749 5750 5752 5754 5756 5758 5760 5762 5764 5765 5767 5768 5769 5769 5770 5770 5771 5772 5772 5772 5773 5773 5774 5774 5774 5774 5774 5774 5773 5772 5771 5769 5768 5766 5764 5761 5758 5755 5752 5748 5745
5741 5742 5744 5745 5747 5748 5750 5752 5754 5756 5757 5759 5760 5761 5762 5763 5763 5764 5765 5765 5765 5766 5766 5767 5767 5767 5767 5766 5766 5765 5764 5763 5762 5760 5758 5756 5753 5751 5747 5744 5740 5737 5733
5737 5737 5738 5740 5741 5742 5744 5745 5747 5749 5751 5752 5753 5754 5755 5756 5757 5757 5758 5758 5758 5759 5759 5759 5759 5759 5759 5758 5758 5757 5756 5754 5752 5750 5748 5745 5743 5740 5736 5733 5729 5726 5722
5732 5733 5733 5734 5735 5736 5737 5739 5740 5742 5743 5745 5746 5747 5748 5749 5749 5750 5750 5750 5751 5751 5752 5752 5752 5752 5751 5751 5749 5748 5747 5745 5743 5741 5738 5735 5732 5729 5726 5723 5719 5715 5711
5727 5727 5728 5728 5729 5730 5731 5732 5733 5735 5736 5737 5738 5739 5740 5741 5742 5743 5743 5743 5744 5744 5744 5745 5744 5744 5744 5743 5742 5740 5739 5737 5734 5732 5729 5726 5723 5719 5716 5712 5709 5705 5701
5722 5722 5722 5722 5723 5724 5725 5726 5727 5728 5729 5730 5731 5732 5733 5734 5735 5735 5736 5737 5737 5737 5737 5737 5737 5737 5736 5735 5734 5732 5730 5728 5725 5723 5720 5717 5714 5710 5707 5703 5700 5696 5692
5716 5716 5716 5717 5717 5718 5719 5720 5720 5721 5722 5723 5724 5725 5726 5728 5728 5729 5729 5730 5730 5730 5730 5730 5730 5729 5729 5727 5726 5724 5722 5720 5718 5715 5712 5709 5706 5703 5700 5696 5693 5689 5686
5711 5711 5711 5712 5712 5712 5713 5714 5715 5715 5716 5717 5718 5719 5720 5721 5722 5722 5723 5723 5723 5723 5724 5724 5723 5723 5722 5721 5719 5717 5716 5714 5712 5709 5706 5703 5700 5697 5694 5691 5687 5684 5681
5707 5707 5707 5707 5707 5707 5708 5708 5709 5710 5711 5711 5712 5713 5714 5715 5716 5716 5716 5717 5717 5717 5717 5717 5717 5717 5716 5714 5713 5711 5710 5708 5706 5703 5700 5697 5695 5692 5689 5686 5683 5680 5677
5703 5703 5702 5702 5703 5703 5703 5703 5704 5705 5706 5706 5707 5708 5708 5709 5710 5710 5711 5711 5711 5712 5712 5712 5711 5711 5710 5709 5707 5706 5704 5702 5700 5698 5696 5693 5691 5688 5685 5682 5679 5676 5673
5700 5699 5699 5698 5698 5699 5699 5699 5700 5700 5701 5701 5702 5703 5703 5704 5705 5705 5705 5706 5706 5706 5706 5706 5706 5705 5704 5703 5702 5701 5700 5698 5696 5694 5691 5689 5687 5684 5681 5678 5675 5673 5670
5696 5696 5696 5695 5695 5695 5695 5695 5695 5696 5696 5697 5697 5698 5698 5699 5699 5700 5700 5701 5701 5701 5701 5701 5701 5701 5700 5699 5698 5697 5695 5694 5692 5690 5688 5685 5683 5681 5678 5675 5672 5670 5667
5693 5693 5692 5692 5691 5691 5691 5691 5692 5692 5692 5693 5693 5694 5694 5695 5695 5695 5695 5696 5696 5697 5697 5697 5697 5696 5696 5695 5694 5693 5692 5690 5689 5687 5685 5682 5680 5677 5675 5672 5669 5667 5664
5690 5690 5689 5689 5688 5688 5687 5688 5688 5688 5689 5689 5689 5689 5690 5690 5691 5691 5691 5692 5692 5693 5693 5693 5693 5693 5692 5692 5691 5690 5688 5687 5685 5683 5681 5679 5677 5674 5672 5669 5667 5664 5662
5688 5687 5686 5686 5685 5685 5684 5684 5684 5684 5685 5685 5685 5686 5686 5687 5687 5687 5688 5688 5689 5689 5690 5690 5690 5690 5689 5689 5688 5687 5686 5684 5682 5681 5679 5676 5674 5672 5669 5667 5664 5662 5659